Stations météo

réclame
Mon MeteoGroup
Wunstorf, Allemagne (10334): Température de l'air & dewpoint: 03.07.2020 22:00:00 - 09.07.2020 22:00:00 (CEST)Wunstorf, Allemagne (10334): Vitesse du vent & gusts: 03.07.2020 22:00:00 - 09.07.2020 22:00:00 (CEST)Wunstorf, Allemagne (10334): Direction du vent: 03.07.2020 22:00:00 - 09.07.2020 22:00:00 (CEST)Wunstorf, Allemagne (10334): reduced air pressure: 03.07.2020 22:00:00 - 09.07.2020 22:00:00 (CEST)Wunstorf, Allemagne (10334): visibility: 03.07.2020 22:00:00 - 09.07.2020 22:00:00 (CEST)
Date & Time tt [°C] td [°C] ff [km/h] ff [knt] fx [km/h] fx [knt] dd ppp [hPa] vv [km]
09.07.2020 22:00:00 16,9 16,3 7 4 - - W 1011,0 1,0
09.07.2020 21:00:00 17,3 16,2 11 6 - - W 1011,0 3,3
09.07.2020 20:00:00 17,9 16,3 18 10 - - W 1011,0 4,0
09.07.2020 19:00:00 18,9 15,6 22 12 - - W 1010,8 4,6
09.07.2020 18:00:00 19,0 15,7 25 14 - - W 1010,7 4,6
09.07.2020 17:00:00 19,8 15,6 25 14 - - W 1010,6 30
09.07.2020 16:00:00 19,4 16,5 21 11 - - W 1010,8 10
09.07.2020 15:00:00 19,0 16,9 22 12 - - WSW 1010,7 18
09.07.2020 14:00:00 18,7 16,9 25 14 - - W 1010,9 8
09.07.2020 13:00:00 17,4 16,4 18 10 - - WSW 1011,4 7
09.07.2020 12:00:00 17,4 16,3 18 10 - - WSW 1011,3 10
09.07.2020 11:00:00 15,9 15,3 15 8 - - SSW 1011,5 4,5
09.07.2020 10:00:00 15,5 14,7 11 6 - - SSE 1011,9 2,0
09.07.2020 09:00:00 15,0 14,3 11 6 - - S 1012,7 4,5
09.07.2020 08:00:00 14,7 13,9 8 4 - - S 1013,3 3,0
09.07.2020 07:00:00 14,2 13,5 8 4 - - S 1013,5 3,5
09.07.2020 06:00:00 13,9 13,3 7 4 - - S 1013,9 4,2
09.07.2020 05:00:00 13,9 13,2 7 4 - - SSE 1014,2 2,5
09.07.2020 04:00:00 13,9 13,3 7 4 - - SSE 1014,6 2,4
09.07.2020 03:00:00 13,9 13,3 7 4 - - ESE 1015,0 2,5
09.07.2020 02:00:00 13,8 13,2 7 4 - - SE 1015,4 2,6
09.07.2020 01:00:00 13,8 13,2 7 4 - - SE 1016,0 2,5
09.07.2020 00:00:00 13,9 13,2 4 2 - - SE 1016,3 3,1
08.07.2020 23:00:00 13,8 13,2 4 2 - - SE 1016,5 3,0
08.07.2020 22:00:00 13,7 13,1 4 2 - - E 1016,4 2,7
08.07.2020 21:00:00 13,8 13,0 4 2 - - N 1016,2 1,7
08.07.2020 20:00:00 14,0 13,1 4 2 - - N 1016,2 1,9
08.07.2020 19:00:00 14,2 13,1 4 2 - - N 1015,9 3,6
08.07.2020 18:00:00 14,5 12,7 11 6 - - NW 1016,1 7
08.07.2020 17:00:00 14,7 12,2 9 5 - - W 1016,1 8
08.07.2020 16:00:00 16,4 11,4 7 4 - - NW 1015,6 18
08.07.2020 15:00:00 14,5 12,0 7 4 - - WNW 1015,8 10
08.07.2020 14:00:00 13,8 11,7 4 2 - - N 1015,8 7
08.07.2020 13:00:00 13,8 11,5 8 4 - - NW 1015,7 3,4
08.07.2020 12:00:00 13,6 11,1 4 2 - - NW 1015,5 12
08.07.2020 11:00:00 12,6 11,4 4 2 - - SW 1015,4 7
08.07.2020 10:00:00 12,2 11,1 4 2 - - ESE 1015,2 6
08.07.2020 09:00:00 12,2 10,8 4 2 - - ENE 1015,3 7
08.07.2020 08:00:00 12,2 10,3 4 2 - - NNW 1015,1 20
08.07.2020 07:00:00 12,2 10,3 4 2 - - NNW 1014,9 20
08.07.2020 06:00:00 12,7 10,2 7 4 - - W 1015,0 4,9
08.07.2020 05:00:00 12,8 9,9 7 4 - - W 1015,3 4,9
08.07.2020 04:00:00 12,8 9,5 11 6 - - SW 1015,4 4,8
08.07.2020 03:00:00 12,8 9,5 7 4 - - WSW 1015,9 4,9
08.07.2020 02:00:00 13,0 9,1 7 4 - - WSW 1016,2 5
08.07.2020 01:00:00 13,7 8,1 7 4 - - WSW 1016,6 5
08.07.2020 00:00:00 14,4 7,9 11 6 - - W 1016,9 5
07.07.2020 23:00:00 14,5 9,2 14 8 - - W 1016,8 5
07.07.2020 22:00:00 14,5 10,9 7 4 - - WSW 1016,7 4,6
07.07.2020 21:00:00 15,5 10,2 11 6 - - W 1016,9 5
07.07.2020 20:00:00 15,6 9,6 11 6 - - WNW 1016,8 5
07.07.2020 19:00:00 16,1 10,7 18 10 - - W 1017,0 5
07.07.2020 18:00:00 15,7 10,0 14 8 47 25 W 1017,1 5
07.07.2020 17:00:00 18,3 7,9 25 14 - - W 1017,2 35
07.07.2020 16:00:00 19,2 7,6 25 14 - - WSW 1017,2 50
07.07.2020 15:00:00 19,6 7,9 18 10 - - W 1017,4 50
07.07.2020 14:00:00 19,0 7,8 22 12 - - W 1018,3 50
07.07.2020 13:00:00 18,3 7,9 25 14 47 25 W 1018,7 45
07.07.2020 12:00:00 17,2 7,2 22 12 - - W 1019,2 45
07.07.2020 11:00:00 16,0 7,2 18 10 - - W 1019,7 40
07.07.2020 10:00:00 15,2 8,1 18 10 - - W 1019,9 30
07.07.2020 09:00:00 14,2 9,1 18 10 - - WNW 1020,0 30
07.07.2020 08:00:00 12,6 9,6 14 8 - - W 1020,3 30
07.07.2020 07:00:00 11,4 9,4 14 8 - - W 1020,1 30
07.07.2020 06:00:00 10,6 9,0 11 6 - - W 1019,7 4,6
07.07.2020 05:00:00 10,8 9,3 11 6 - - W 1019,5 4,4
07.07.2020 04:00:00 11,1 9,5 11 6 - - W 1019,5 4,4
07.07.2020 03:00:00 12,1 10,1 14 8 - - W 1019,5 4,6
07.07.2020 02:00:00 12,7 10,3 14 8 - - W 1019,3 4,7
07.07.2020 01:00:00 13,3 10,5 14 8 - - W 1018,8 4,8
07.07.2020 00:00:00 13,4 10,5 18 10 - - WNW 1018,5 4,8
06.07.2020 23:00:00 13,4 10,7 18 10 - - WNW 1018,2 4,9
06.07.2020 22:00:00 13,3 11,2 25 14 - - WNW 1017,5 4,9
06.07.2020 21:00:00 13,6 11,5 18 10 - - W 1016,6 5
06.07.2020 20:00:00 15,2 10,6 25 14 - - WNW 1016,1 40
06.07.2020 19:00:00 15,8 11,1 25 14 - - W 1015,3 50
06.07.2020 18:00:00 13,8 11,9 18 10 47 25 WNW 1015,1 18
06.07.2020 17:00:00 16,5 9,9 25 14 - - W 1014,1 45
06.07.2020 16:00:00 16,9 10,5 29 16 50 27 W 1013,4 50
06.07.2020 15:00:00 14,7 9,8 25 14 58 31 NW 1013,2 9
06.07.2020 14:00:00 17,0 8,5 32 18 - - W 1012,2 25
06.07.2020 13:00:00 15,7 10,6 25 14 47 25 WSW 1011,8 20
06.07.2020 12:00:00 15,0 11,7 18 10 50 27 W 1011,3 12
06.07.2020 11:00:00 12,0 9,3 41 22 - - WNW 1011,6 4,0
06.07.2020 10:00:00 16,2 9,0 25 14 47 25 W 1010,4 25
06.07.2020 09:00:00 15,7 9,3 29 16 47 25 W 1010,1 25
06.07.2020 08:00:00 15,2 9,6 25 14 - - W 1009,7 25
06.07.2020 07:00:00 14,6 9,5 22 12 - - WSW 1009,4 25
06.07.2020 06:00:00 14,7 9,3 22 12 - - WSW 1009,2 4,8
06.07.2020 05:00:00 15,2 9,3 22 12 - - WSW 1008,6 5
06.07.2020 04:00:00 16,3 9,5 25 14 - - W 1008,5 5
06.07.2020 03:00:00 16,7 10,3 18 10 - - WSW 1008,7 5
06.07.2020 02:00:00 17,5 10,4 18 10 - - W 1008,5 5
06.07.2020 01:00:00 18,0 10,8 18 10 - - W 1008,3 5
06.07.2020 00:00:00 18,8 10,6 14 8 - - W 1008,5 5
05.07.2020 23:00:00 20,0 11,3 18 10 - - W 1008,5 5
05.07.2020 22:00:00 20,4 14,1 11 6 - - W 1008,3 5
05.07.2020 21:00:00 20,7 14,5 14 8 - - W 1007,9 5
05.07.2020 20:00:00 21,7 14,7 22 12 - - W 1008,1 5
05.07.2020 19:00:00 22,2 15,8 25 14 54 29 W 1008,1 5
05.07.2020 18:00:00 21,6 16,9 29 16 50 27 W 1008,2 5
05.07.2020 17:00:00 19,9 17,5 29 16 - - W 1008,8 3,0
05.07.2020 16:00:00 21,1 17,3 32 18 58 31 W 1008,6 5
05.07.2020 15:00:00 20,5 18,1 25 14 - - WSW 1008,8 5
05.07.2020 14:00:00 20,8 17,2 29 16 - - WSW 1008,6 3,8
05.07.2020 13:00:00 21,5 16,8 32 18 54 29 W 1008,5 5
05.07.2020 12:00:00 21,1 16,1 36 19 58 31 W 1008,5 5
05.07.2020 11:00:00 21,1 16,7 36 19 - - WSW 1008,4 5
05.07.2020 10:00:00 21,2 16,2 36 19 58 31 WSW 1008,2 6
05.07.2020 09:00:00 19,4 17,4 25 14 - - WSW 1008,5 6
05.07.2020 08:00:00 19,3 16,5 29 16 - - WSW 1008,4 5
05.07.2020 07:00:00 19,0 16,9 22 12 - - WSW 1008,7 5
05.07.2020 06:00:00 19,4 16,5 29 16 47 25 WSW 1008,6 5
05.07.2020 05:00:00 18,8 16,9 22 12 - - WSW 1009,1 5
05.07.2020 04:00:00 19,0 16,5 25 14 50 27 WSW 1009,2 5
05.07.2020 03:00:00 19,4 16,2 29 16 50 27 WSW 1010,0 5
05.07.2020 02:00:00 19,3 16,1 29 16 - - WSW 1010,3 5
05.07.2020 01:00:00 19,5 15,9 29 16 47 25 WSW 1010,8 5
05.07.2020 00:00:00 19,7 15,5 22 12 - - WSW 1011,2 5
04.07.2020 23:00:00 19,4 15,6 18 10 - - WSW 1011,7 6
04.07.2020 22:00:00 20,0 15,0 18 10 - - WSW 1011,8 6
04.07.2020 21:00:00 19,8 15,0 18 10 - - WSW 1011,9 5
04.07.2020 20:00:00 19,7 14,9 25 14 - - WSW 1012,4 40
04.07.2020 19:00:00 20,8 14,1 22 12 - - W 1012,6 40
04.07.2020 18:00:00 20,7 14,4 25 14 47 25 WSW 1012,3 5
04.07.2020 17:00:00 21,1 13,2 25 14 - - W 1012,4 5
04.07.2020 16:00:00 21,6 12,3 29 16 50 27 WSW 1012,1 6
04.07.2020 15:00:00 21,9 11,8 29 16 50 27 WSW 1012,0 6
04.07.2020 14:00:00 21,4 11,4 36 19 - - WSW 1012,3 6
04.07.2020 13:00:00 20,2 11,3 25 14 - - WSW 1013,1 6
04.07.2020 12:00:00 19,0 12,0 25 14 - - WSW 1013,4 6
04.07.2020 11:00:00 18,2 12,2 22 12 - - WSW 1013,8 6
04.07.2020 10:00:00 17,5 11,8 25 14 - - WSW 1014,0 6
04.07.2020 09:00:00 17,2 11,3 25 14 - - WSW 1014,3 6
04.07.2020 08:00:00 16,7 10,8 25 14 - - WSW 1014,2 6
04.07.2020 07:00:00 17,0 10,2 25 14 - - WSW 1014,2 6
04.07.2020 06:00:00 16,8 10,0 25 14 - - WSW 1014,3 6
04.07.2020 05:00:00 16,6 10,2 25 14 - - WSW 1014,2 6
04.07.2020 04:00:00 17,4 10,6 25 14 - - WSW 1014,5 6
04.07.2020 03:00:00 16,7 11,8 11 6 - - SW 1014,9 45
04.07.2020 02:00:00 17,0 11,8 14 8 - - SW 1015,2 40
04.07.2020 01:00:00 16,8 12,0 14 8 - - SW 1015,3 6
04.07.2020 00:00:00 17,6 11,9 14 8 - - SSW 1015,3 6
03.07.2020 23:00:00 17,8 12,2 14 8 - - SW 1015,5 6
03.07.2020 22:00:00 18,5 12,6 11 6 - - SW 1015,5 6

tt = Température de l'air
td = dewpoint
ff = Vitesse du vent
fx = gusts
dd = Direction du vent
ppp = reduced air pressure
vv = visibility

stations d'obs. à proximité